Location: Drocourt
(49.0571°N, 1.7669°E)
Time: 00:18:29
(UTC+00:00)

USA 81 - Pass Details

Date: 09 February 2023
Orbit: 785 x 787 km, 85.0° (Epoch: 29 March)

Event Time Altitude Azimuth Distance (km) Brightness Sun altitude
Rises 18:39:21 0° 179° (S) 3,267 7.3 -16.2°
Reaches altitude 10° 18:41:42 10° 178° (S) 2,343 6.5 -16.6°
Maximum altitude 18:46:57 78° 94° (E) 812 3.9 -17.4°
Drops below altitude 10° 18:52:15 10° 9° (N) 2,362 6.4 -18.3°
Sets 18:54:37 0° 8° (N) 3,296 7.2 -18.7°
